Location: Lac Echo
(45.9375°N, 75.4580°W)
Time: 12:40:54
(UTC-04:00)

Amateur Radio Satellites - All Passes

Search period start: 24 July 2016 12:10
Search period end: 25 July 2016 12:10
Location: Lac Echo, 45.9375°N, 75.4580°W

Satellite Date Start Highest point End Downlink Frequencies (MHz)
Time Altitude Azimuth
UKube-1 24 Jul 12:16:54 12:19:49 17° 92° (E) 12:22:44 .
FUNcube-1 24 Jul 12:18:38 12:19:18 10° 304° (WNW) 12:19:58 145.935
Gurwin Techsat 1B 24 Jul 12:22:10 12:24:00 12° 53° (NE) 12:25:50 435.225
HUMSAT D 24 Jul 12:22:55 12:26:26 26° 294° (WNW) 12:29:54 437.325/437.525
AUBIESAT-1 24 Jul 12:28:41 12:32:29 26° 300° (WNW) 12:36:20 437.475
VELOX 1 24 Jul 12:36:09 12:40:26 46° 99° (E) 12:44:43 145.980
CUBEBUG 1 24 Jul 12:46:04 12:50:28 69° 102° (ESE) 12:54:51 437.445
SPROUT 24 Jul 12:55:57 12:59:58 37° 97° (E) 13:03:58 437.525
NANOSAT C BR1 24 Jul 12:58:53 13:01:30 16° 269° (W) 13:04:09 145.865
Oscar 19 24 Jul 13:03:57 13:08:53 50° 69° (ENE) 13:13:50 437.125/150
Cosmos 2504 24 Jul 13:05:03 13:13:21 42° 290° (WNW) 13:21:39 435.465 / 435.565
DUCHIFAT 1 24 Jul 13:05:04 13:07:28 15° 270° (W) 13:09:53 145.980
YUBILEINY 24 Jul 13:14:24 13:19:34 16° 307° (NW) 13:24:46 435.215
50 SAT 24 Jul 13:16:40 13:20:11 50° 287° (WNW) 13:23:39 437.505
AO-7 24 Jul 13:19:32 13:24:39 18° 42° (NE) 13:29:46 29.400- 29.500
AISAT 24 Jul 13:20:35 13:24:59 59° 288° (WNW) 13:29:21 437.250
DX 1 24 Jul 13:31:56 13:36:16 64° 287° (WNW) 13:40:36 434.975-435.025
BUGSAT 1 24 Jul 13:33:14 13:35:38 15° 269° (W) 13:38:04 437.445
AIST 1 24 Jul 13:36:43 13:40:28 31° 91° (E) 13:44:15
ESTCUBE 1 24 Jul 13:42:35 13:46:12 24° 295° (WNW) 13:49:49 437.505/2401.250
JAS-2 24 Jul 13:47:24 13:52:30 27° 265° (W) 13:57:11 435.910
UKube-1 24 Jul 13:51:57 13:56:09 49° 289° (WNW) 14:00:19 .
RS-15 24 Jul 13:54:42 14:05:44 36° 21° (NNE) 14:16:50 29.354- 29.394
Gurwin Techsat 1B 24 Jul 13:57:43 14:02:59 69° 72° (ENE) 14:08:18 435.225
TISAT 1 24 Jul 14:03:16 14:07:24 47° 99° (E) 14:11:30 437.305
SWISSCUBE 24 Jul 14:08:24 14:10:28 13° 88° (E) 14:12:31 437.505
AO-85 24 Jul 14:09:50 14:13:56 23° 112° (ESE) 14:17:56 145.980
VELOX 1 24 Jul 14:13:19 14:16:36 21° 297° (WNW) 14:19:53 145.980
CUBEBUG 1 24 Jul 14:23:50 14:26:14 15° 300° (WNW) 14:28:38 437.445
Cosmos 2499 24 Jul 14:26:45 14:30:10 13° 71° (ENE) 14:33:33 435.465 / 435.565
BEESAT 24 Jul 14:29:09 14:32:29 19° 92° (E) 14:35:47 436.000
ITAMSAT 1 24 Jul 14:31:04 14:36:05 50° 69° (ENE) 14:41:08 435.822/435.867
SPROUT 24 Jul 14:32:16 14:35:44 24° 295° (WNW) 14:39:10 437.525
CUSAT 1 24 Jul 14:41:42 14:43:51 20° 74° (ENE) 14:46:14 437.405
Oscar 19 24 Jul 14:44:27 14:48:28 23° 267° (W) 14:52:30 437.125/150
ITUPSAT 1 24 Jul 14:49:32 14:53:38 28° 95° (E) 14:57:44 437.325
AO-7 24 Jul 15:07:39 15:15:51 63° 65° (ENE) 15:24:06 29.400- 29.500
AIST 1 24 Jul 15:14:38 15:18:06 24° 289° (WNW) 15:21:36
GONETS M04 24 Jul 15:20:09 15:28:00 40° 86° (E) 15:35:53
SO-50 24 Jul 15:24:47 15:26:34 12° 22° (NNE) 15:28:22 436.795
MOZHAYETS 4 24 Jul 15:39:13 15:41:07 12° 88° (E) 15:43:01
TISAT 1 24 Jul 15:39:43 15:42:44 19° 297° (WNW) 15:45:44 437.305
Gurwin Techsat 1B 24 Jul 15:40:00 15:43:27 17° 270° (W) 15:46:56 435.225
SWISSCUBE 24 Jul 15:44:04 15:48:51 79° 286° (WNW) 15:53:36 437.505
AO-85 24 Jul 15:48:46 15:54:05 64° 309° (NW) 15:59:09 145.980
HORYU 2 24 Jul 15:52:00 15:55:05 18° 61° (ENE) 15:58:11 437.375
BEESAT 24 Jul 16:05:56 16:10:36 55° 289° (WNW) 16:15:14 436.000
RS-15 24 Jul 16:08:15 16:20:39 76° 50° (NE) 16:32:57 29.354- 29.394
ITAMSAT 1 24 Jul 16:11:39 16:15:49 24° 267° (W) 16:20:00 435.822/435.867
Cosmos 2499 24 Jul 16:12:49 16:21:30 62° 92° (E) 16:30:02 435.465 / 435.565
STARS 24 Jul 16:14:59 16:17:07 13° 89° (E) 16:19:14 437.465
DANDE 24 Jul 16:16:34 16:19:11 66° 260° (W) 16:21:48 436.750
NOAA 15 24 Jul 16:21:27 16:22:59 11° 53° (NE) 16:24:32 137.62
CUSAT 1 24 Jul 16:24:08 16:25:43 14° 266° (W) 16:27:27 437.405
ITUPSAT 1 24 Jul 16:27:11 16:31:32 36° 293° (WNW) 16:35:53 437.325
BRITE-PL 24 Jul 16:44:18 16:46:16 13° 60° (ENE) 16:48:13 437.365/2234.400
AO-7 24 Jul 17:01:46 17:09:05 33° 264° (W) 17:16:30 29.400- 29.500
KKS-1 24 Jul 17:02:17 17:06:49 77° 105° (ESE) 17:11:17 437.445
Cubesat XI-IV 24 Jul 17:03:28 17:07:14 20° 59° (ENE) 17:11:01 437.490
SO-50 24 Jul 17:03:57 17:08:23 39° 45° (NE) 17:12:40 436.795
MOZHAYETS 4 24 Jul 17:14:15 17:18:51 76° 285° (WNW) 17:23:24
GONETS M04 24 Jul 17:16:16 17:24:38 50° 287° (WNW) 17:33:05
SWISSCUBE 24 Jul 17:24:16 17:25:51 12° 304° (NW) 17:27:26 437.505
HORYU 2 24 Jul 17:26:51 17:31:15 55° 259° (W) 17:35:41 437.375
CUTE-I 24 Jul 17:27:05 17:31:42 30° 64° (ENE) 17:36:19 437.470
LilacSat-2 24 Jul 17:31:32 17:34:33 22° 66° (ENE) 17:37:33 437.200
AO-85 24 Jul 17:32:07 17:35:29 17° 329° (NNW) 17:38:44 145.980
NOAA 18 24 Jul 17:36:46 17:41:49 38° 65° (ENE) 17:46:55 137.9125
STARS 24 Jul 17:49:30 17:53:57 69° 286° (WNW) 17:58:22 437.465
NOAA 15 24 Jul 17:56:37 18:01:48 67° 72° (ENE) 18:07:02 137.62
GOMX 1 24 Jul 18:00:04 18:03:49 34° 68° (ENE) 18:07:43 467.674
HO-68 24 Jul 18:02:16 18:06:34 17° 48° (NE) 18:10:52 435.675
Cosmos 2499 24 Jul 18:07:11 18:15:06 35° 292° (WNW) 18:22:54 435.465 / 435.565
DOVE 4 24 Jul 18:09:02 18:12:16 21° 63° (ENE) 18:15:38 437.250
BRITE-PL 24 Jul 18:20:08 18:24:16 65° 259° (W) 18:28:25 437.365/2234.400
RS-15 24 Jul 18:21:30 18:32:17 38° 254° (WSW) 18:42:58 29.354- 29.394
CUBESAT XI-V 24 Jul 18:25:14 18:29:51 76° 103° (ESE) 18:34:27 437.345
KKS-1 24 Jul 18:40:29 18:42:47 14° 301° (WNW) 18:45:04 437.445
PHONESAT 2.4 24 Jul 18:41:23 18:42:54 13° 157° (SSE) 18:44:25 2401.200-2431.200
Cubesat XI-IV 24 Jul 18:41:25 18:46:46 70° 257° (WSW) 18:52:11 437.490
CINEMA 3 24 Jul 18:43:15 18:46:01 16° 60° (ENE) 18:48:53 145.822/145.860
SO-50 24 Jul 18:44:41 18:48:45 31° 244° (WSW) 18:52:42 436.795
MOZHAYETS 4 24 Jul 18:54:30 18:55:12 10° 304° (NW) 18:55:53
PCSat 24 Jul 19:05:07 19:07:36 13° 103° (ESE) 19:10:06 145.827
LilacSat-2 24 Jul 19:05:10 19:08:40 32° 264° (W) 19:12:13 437.200
CUTE-I 24 Jul 19:06:29 19:11:34 42° 262° (W) 19:16:41 437.470
CANX-2 24 Jul 19:14:25 19:18:00 26° 67° (ENE) 19:21:34 2200.000
NOAA 18 24 Jul 19:17:29 19:22:29 35° 263° (W) 19:27:33 137.9125
GONETS M04 24 Jul 19:21:35 19:24:07 11° 313° (NW) 19:26:39
YUBILEINY 24 Jul 19:23:51 19:29:18 17° 54° (NE) 19:34:41 435.215
AAUSAT CUBESAT 2 24 Jul 19:28:02 19:30:10 14° 61° (ENE) 19:32:19 437.432
CUTE 1.7 + AOD 2 24 Jul 19:28:11 19:31:59 32° 68° (ENE) 19:35:47 437.475
NOAA 15 24 Jul 19:38:38 19:42:05 18° 270° (W) 19:45:32 137.62
GOMX 1 24 Jul 19:38:44 19:42:03 23° 267° (W) 19:45:29 467.674
BEESAT 3 24 Jul 19:39:32 19:43:19 49° 120° (ESE) 19:47:08 437.485
BEESAT 2 24 Jul 19:40:09 19:43:31 27° 116° (ESE) 19:46:55 435.950
DOVE 4 24 Jul 19:45:40 19:49:42 42° 263° (W) 19:53:57 437.250
HO-68 24 Jul 19:45:57 19:53:04 71° 69° (ENE) 20:00:15 435.675
UWE-3 24 Jul 19:54:08 19:57:15 18° 62° (ENE) 20:00:26 435.000/436.395/437.385
ZACube-1 24 Jul 20:02:07 20:04:40 15° 60° (ENE) 20:07:15 437.345
FUNcube-1 24 Jul 20:03:01 20:05:26 14° 60° (ENE) 20:07:53 145.935
CUBESAT XI-V 24 Jul 20:04:12 20:06:38 14° 301° (WNW) 20:09:06 437.345
CUBEBUG 2 24 Jul 20:08:44 20:12:51 34° 68° (ENE) 20:17:04 437.445
SEEDS 24 Jul 20:12:21 20:16:33 66° 74° (ENE) 20:20:45 437.485
PHONESAT 2.4 24 Jul 20:16:10 20:18:51 27° 173° (S) 20:21:31 2401.200-2431.200
CINEMA 3 24 Jul 20:18:08 20:22:35 67° 259° (WSW) 20:27:17 145.822/145.860
STRAND 1 24 Jul 20:20:02 20:25:09 66° 102° (ESE) 20:30:14 437.568
COMPASS 1 24 Jul 20:29:41 20:33:51 72° 75° (ENE) 20:38:02 437.405
PCSat 24 Jul 20:44:44 20:50:09 86° 121° (ESE) 20:55:37 145.827
Oscar 11 24 Jul 20:47:43 20:51:45 38° 69° (ENE) 20:55:48 145.826/435.025
CANX-2 24 Jul 20:49:54 20:53:45 32° 264° (W) 20:57:36 2200.000
Cosmos 2491 24 Jul 20:50:09 20:56:21 22° 78° (ENE) 21:02:34 435.465 / 435.565
AO-85 24 Jul 20:59:53 21:00:53 11° 19° (NNE) 21:01:53 145.980
AAUSAT CUBESAT 2 24 Jul 21:01:01 21:05:09 65° 259° (W) 21:09:18 437.432
Cosmos 2504 24 Jul 21:02:13 21:08:18 22° 58° (ENE) 21:14:04 435.465 / 435.565
PRISM 24 Jul 21:02:48 21:06:10 24° 95° (E) 21:09:32 437.425
CUTE 1.7 + AOD 2 24 Jul 21:04:13 21:07:50 26° 266° (W) 21:11:27 437.475
O/OREOS (USA 219) 24 Jul 21:07:31 21:11:29 32° 106° (ESE) 21:15:29 437.305
M-CUBED/EXP-1 PRIME 24 Jul 21:13:48 21:17:20 42° 64° (ENE) 21:21:12 437.505
AIST 2 24 Jul 21:17:25 21:19:51 15° 111° (ESE) 21:22:19 435.215
BEESAT 2 24 Jul 21:17:36 21:21:15 34° 314° (NW) 21:24:56 435.950
BEESAT 3 24 Jul 21:18:05 21:21:13 22° 320° (NW) 21:24:23 437.485
YUBILEINY 24 Jul 21:19:07 21:28:00 71° 78° (ENE) 21:36:46 435.215
UWE-3 24 Jul 21:28:47 21:33:16 58° 260° (W) 21:37:53 435.000/436.395/437.385
HO-68 24 Jul 21:35:42 21:41:23 25° 268° (W) 21:47:08 435.675
ZACube-1 24 Jul 21:35:51 21:40:23 73° 259° (WSW) 21:44:59 437.345
FUNcube-1 24 Jul 21:36:33 21:41:04 76° 258° (WSW) 21:45:41 145.935
HUMSAT D 24 Jul 21:40:27 21:44:15 31° 68° (ENE) 21:48:05 437.325/437.525
AUBIESAT-1 24 Jul 21:42:11 21:45:57 72° 68° (ENE) 21:50:03 437.475
CUBEBUG 2 24 Jul 21:45:31 21:49:29 29° 266° (W) 21:53:34 437.445
DELFI C3 24 Jul 21:47:59 21:51:58 73° 74° (ENE) 21:55:56 145.870
SEEDS 24 Jul 21:50:50 21:52:42 13° 271° (W) 21:54:33 437.485
PHONESAT 2.4 24 Jul 21:52:19 21:54:56 25° 190° (S) 21:57:34 2401.200-2431.200
STRAND 1 24 Jul 22:00:18 22:03:50 19° 301° (WNW) 22:07:21 437.568
COMPASS 1 24 Jul 22:08:34 22:09:54 11° 272° (W) 22:11:15 437.405
Oscar 11 24 Jul 22:24:34 22:28:00 22° 267° (W) 22:31:27 145.826/435.025
PCSat 24 Jul 22:30:08 22:34:16 21° 322° (NW) 22:38:24 145.827
TIGRISAT 24 Jul 22:37:35 22:41:23 24° 93° (E) 22:45:06 435.000
PRISM 24 Jul 22:37:53 22:41:31 31° 292° (WNW) 22:45:09 437.425
AO-85 24 Jul 22:38:40 22:42:50 34° 43° (NE) 22:46:41 145.980
Cosmos 2491 24 Jul 22:43:21 22:52:05 84° 279° (W) 23:00:52 435.465 / 435.565
AISAT 24 Jul 22:45:10 22:48:17 19° 62° (ENE) 22:51:25 437.250
O/OREOS (USA 219) 24 Jul 22:46:57 22:50:53 30° 304° (NW) 22:54:51 437.305
M-CUBED/EXP-1 PRIME 24 Jul 22:49:38 22:52:10 17° 264° (W) 22:54:50 437.505
UNISAT 6 24 Jul 22:52:39 22:56:57 35° 96° (E) 23:01:10 437.425
AIST 2 24 Jul 22:53:48 22:57:52 62° 309° (NW) 23:02:00 435.215
Cosmos 2504 24 Jul 22:54:38 23:03:02 89° 263° (W) 23:10:44 435.465 / 435.565
DX 1 24 Jul 22:55:10 22:58:02 18° 62° (ENE) 23:00:56 434.975-435.025
ESTCUBE 1 24 Jul 23:07:01 23:11:19 47° 71° (ENE) 23:15:39 437.505/2401.250
UKube-1 24 Jul 23:13:45 23:16:59 21° 63° (ENE) 23:20:15 .
HUMSAT D 24 Jul 23:16:11 23:19:52 27° 265° (W) 23:23:35 437.325/437.525
ISS 24 Jul 23:16:38 23:19:51 62° 148° (SSE) 23:23:05 145.825
YUBILEINY 24 Jul 23:16:54 23:24:00 28° 280° (W) 23:31:04 435.215
AUBIESAT-1 24 Jul 23:20:21 23:21:02 10° 268° (W) 23:21:44 437.475
QB50P1 24 Jul 23:25:44 23:27:36 13° 89° (E) 23:29:27 145.935-145.965
DELFI C3 24 Jul 23:27:03 23:27:18 10° 272° (W) 23:27:33 145.870
PHONESAT 2.4 24 Jul 23:29:56 23:30:51 11° 206° (SSW) 23:31:45 2401.200-2431.200
ANTELSAT 24 Jul 23:31:02 23:35:44 84° 103° (ESE) 23:40:20 437.575/2403.000
POPSAT HIP 1 24 Jul 23:31:30 23:33:51 14° 90° (E) 23:36:12 437.405
VELOX 1 24 Jul 23:35:34 23:39:51 55° 72° (ENE) 23:44:10 145.980
AIST 1 24 Jul 23:42:32 23:43:59 11° 64° (ENE) 23:45:27
CUBEBUG 1 24 Jul 23:44:08 23:48:26 76° 75° (ENE) 23:52:46 437.445
QB50P2 24 Jul 23:50:48 23:54:19 24° 94° (E) 23:57:49 145.880/145.840
SPROUT 24 Jul 23:51:40 23:55:37 38° 69° (ENE) 23:59:37 437.525
POLYITAN 1 24 Jul 23:53:25 23:56:59 25° 94° (E) 00:00:31 437.675
50 SAT 24 Jul 23:56:01 23:59:41 82° 257° (WSW) 00:03:23 437.505
TIGRISAT 25 Jul 00:13:49 00:18:12 40° 291° (WNW) 00:22:30 435.000
AO-85 25 Jul 00:19:19 00:23:15 32° 245° (WSW) 00:26:54 145.980
AISAT 25 Jul 00:20:11 00:24:26 49° 260° (W) 00:28:43 437.250
UNISAT 6 25 Jul 00:29:34 00:33:32 28° 294° (WNW) 00:37:27 437.425
DX 1 25 Jul 00:29:37 00:33:50 53° 259° (W) 00:38:07 434.975-435.025
AIST 2 25 Jul 00:35:15 00:37:12 13° 330° (NNW) 00:39:10 435.215
NANOSAT C BR1 25 Jul 00:38:43 00:43:01 69° 102° (ESE) 00:47:16 145.865
Cosmos 2491 25 Jul 00:44:17 00:50:25 21° 302° (WNW) 00:56:35 435.465 / 435.565
DUCHIFAT 1 25 Jul 00:44:22 00:48:40 75° 103° (ESE) 00:52:56 145.980
ESTCUBE 1 25 Jul 00:45:09 00:48:23 19° 268° (W) 00:51:38 437.505/2401.250
UKube-1 25 Jul 00:48:42 00:52:46 42° 261° (W) 00:56:53 .
Cosmos 2504 25 Jul 00:49:48 00:55:05 19° 285° (WNW) 01:00:09 435.465 / 435.565
JAS-2 25 Jul 00:52:06 00:56:44 31° 96° (E) 01:01:36 435.910
ISS 25 Jul 00:53:24 00:56:27 35° 347° (NNW) 00:59:30 145.825
TISAT 1 25 Jul 00:57:01 01:01:03 47° 71° (ENE) 01:05:07 437.305
QB50P1 25 Jul 00:59:34 01:03:51 68° 286° (WNW) 01:08:06 145.935-145.965
POPSAT HIP 1 25 Jul 01:05:47 01:10:01 60° 288° (WNW) 01:14:15 437.405
ANTELSAT 25 Jul 01:09:29 01:11:45 14° 302° (WNW) 01:14:01 437.575/2403.000
BUGSAT 1 25 Jul 01:10:19 01:14:33 65° 101° (E) 01:18:47 437.445
VELOX 1 25 Jul 01:13:58 01:16:40 16° 269° (W) 01:19:23 145.980
Oscar 19 25 Jul 01:14:24 01:17:07 14° 88° (E) 01:19:51 437.125/150
SWISSCUBE 25 Jul 01:16:33 01:20:07 21° 62° (ENE) 01:23:40 437.505
AIST 1 25 Jul 01:17:50 01:22:11 79° 263° (W) 01:26:31
CUBEBUG 1 25 Jul 01:23:58 01:25:15 11° 272° (W) 01:26:33 437.445
QB50P2 25 Jul 01:26:17 01:30:11 35° 291° (WNW) 01:34:05 145.880/145.840
GONETS M04 25 Jul 01:26:53 01:33:38 24° 60° (ENE) 01:40:20
SPROUT 25 Jul 01:28:22 01:31:42 22° 267° (W) 01:35:04 437.525
POLYITAN 1 25 Jul 01:28:56 01:32:50 34° 292° (WNW) 01:36:43 437.675
BEESAT 25 Jul 01:37:35 01:41:41 29° 65° (ENE) 01:45:47 436.000
ITUPSAT 1 25 Jul 01:58:21 02:02:53 43° 69° (ENE) 02:07:27 437.325
Cosmos 2499 25 Jul 02:02:31 02:08:52 25° 61° (ENE) 02:14:49 435.465 / 435.565
Gurwin Techsat 1B 25 Jul 02:12:06 02:16:14 22° 92° (E) 02:20:21 435.225
NANOSAT C BR1 25 Jul 02:15:59 02:18:13 14° 300° (WNW) 02:20:25 145.865
BEESAT 3 25 Jul 02:18:06 02:19:55 13° 31° (NNE) 02:21:43 437.485
DUCHIFAT 1 25 Jul 02:21:48 02:23:47 13° 300° (WNW) 02:25:46 145.980
KKS-1 25 Jul 02:29:11 02:30:58 12° 58° (ENE) 02:32:45 437.445
ISS 25 Jul 02:30:28 02:33:25 30° 7° (N) 02:36:22 145.825
TISAT 1 25 Jul 02:34:11 02:36:57 17° 268° (W) 02:39:47 437.305
JAS-2 25 Jul 02:37:10 02:41:56 37° 293° (WNW) 02:46:57 435.910
ITAMSAT 1 25 Jul 02:42:58 02:45:39 14° 88° (E) 02:48:18 435.822/435.867
MOZHAYETS 4 25 Jul 02:43:02 02:46:04 18° 61° (ENE) 02:49:06
BUGSAT 1 25 Jul 02:47:04 02:49:26 15° 299° (WNW) 02:51:48 437.445
Oscar 19 25 Jul 02:51:53 02:57:04 80° 285° (WNW) 03:02:15 437.125/150
SWISSCUBE 25 Jul 02:52:52 02:57:33 52° 260° (W) 03:02:15 437.505
AO-7 25 Jul 03:08:31 03:13:08 16° 86° (E) 03:17:43 29.400- 29.500
STARS 25 Jul 03:13:48 03:16:40 17° 61° (ENE) 03:19:32 437.465
BEESAT 25 Jul 03:14:56 03:19:21 36° 263° (W) 03:23:47 436.000
GONETS M04 25 Jul 03:22:50 03:31:41 87° 263° (W) 03:40:32
ITUPSAT 1 25 Jul 03:37:03 03:40:53 24° 266° (W) 03:44:47 437.325
DANDE 25 Jul 03:46:35 03:49:09 13° 91° (E) 03:51:28 436.750
PCSat 25 Jul 03:47:24 03:51:49 24° 40° (NE) 03:56:11 145.827
CUSAT 1 25 Jul 03:47:25 03:50:54 24° 97° (E) 03:53:46 437.405
Gurwin Techsat 1B 25 Jul 03:51:19 03:56:30 54° 290° (WNW) 04:01:40 435.225
BEESAT 3 25 Jul 03:54:24 03:58:21 65° 51° (NE) 04:02:18 437.485
Cosmos 2499 25 Jul 03:54:57 04:02:59 76° 265° (W) 04:10:21 435.465 / 435.565
BEESAT 2 25 Jul 03:55:21 03:59:08 39° 47° (NE) 04:02:53 435.950
CUBESAT XI-V 25 Jul 03:56:29 03:58:32 13° 58° (ENE) 04:00:36 437.345
KKS-1 25 Jul 04:02:25 04:06:52 87° 261° (W) 04:11:21 437.445
ISS 25 Jul 04:06:55 04:10:11 76° 25° (NNE) 04:13:27 145.825
MOZHAYETS 4 25 Jul 04:18:11 04:22:46 61° 259° (W) 04:27:23
ITAMSAT 1 25 Jul 04:20:32 04:25:46 81° 286° (WNW) 04:30:56 435.822/435.867
Oscar 19 25 Jul 04:33:16 04:35:34 13° 305° (NW) 04:37:51 437.125/150
STARS 25 Jul 04:48:16 04:52:35 57° 259° (W) 04:56:57 437.465
AO-7 25 Jul 04:58:56 05:07:20 74° 106° (ESE) 05:15:39 29.400- 29.500
HORYU 2 25 Jul 05:15:45 05:19:21 23° 94° (E) 05:22:54 437.375
GONETS M04 25 Jul 05:21:26 05:27:12 20° 284° (WNW) 05:33:00
DANDE 25 Jul 05:25:56 05:31:47 75° 281° (WNW) 05:36:05 436.750
CUSAT 1 25 Jul 05:29:39 05:32:51 21° 285° (WNW) 05:35:32 437.405
PCSat 25 Jul 05:30:19 05:35:45 72° 242° (WSW) 05:41:08 145.827
CUBESAT XI-V 25 Jul 05:30:37 05:35:15 86° 256° (WSW) 05:39:54 437.345
BEESAT 3 25 Jul 05:33:30 05:35:32 14° 250° (WSW) 05:37:34 437.485
BEESAT 2 25 Jul 05:33:32 05:36:47 24° 245° (WSW) 05:40:01 435.950
AIST 2 25 Jul 05:34:48 05:38:21 26° 42° (NE) 05:41:54 435.215
O/OREOS (USA 219) 25 Jul 05:36:23 05:38:56 15° 47° (NE) 05:41:30 437.305
ISS 25 Jul 05:43:59 05:46:18 18° 224° (SW) 05:48:36 145.825
Cosmos 2499 25 Jul 05:50:41 05:54:29 14° 287° (WNW) 05:58:11 435.465 / 435.565
NOAA 18 25 Jul 05:58:15 06:00:19 12° 87° (E) 06:02:24 137.9125
STRAND 1 25 Jul 06:01:18 06:04:47 19° 59° (ENE) 06:08:18 437.568
GOMX 1 25 Jul 06:01:21 06:01:48 10° 86° (E) 06:02:16 467.674
ITAMSAT 1 25 Jul 06:01:58 06:04:24 13° 305° (NW) 06:06:51 435.822/435.867
NOAA 15 25 Jul 06:10:01 06:13:53 20° 92° (E) 06:17:45 137.62
BRITE-PL 25 Jul 06:21:13 06:25:27 32° 96° (E) 06:29:58 437.365/2234.400
RS-15 25 Jul 06:35:47 06:45:37 35° 105° (ESE) 06:55:54 29.354- 29.394
LilacSat-2 25 Jul 06:36:13 06:39:18 22° 94° (E) 06:42:21 437.200
HORYU 2 25 Jul 06:51:51 06:56:02 39° 292° (WNW) 07:00:11 437.375
AO-7 25 Jul 06:52:27 06:59:26 31° 307° (NW) 07:06:24 29.400- 29.500
Cosmos 2491 25 Jul 06:56:16 07:00:04 13° 50° (NE) 07:03:51 435.465 / 435.565
Cubesat XI-IV 25 Jul 06:56:18 07:01:19 39° 97° (E) 07:06:18 437.490
AIST 2 25 Jul 07:13:02 07:17:00 43° 241° (WSW) 07:20:57 435.215
O/OREOS (USA 219) 25 Jul 07:14:26 07:18:59 84° 247° (WSW) 07:23:32 437.305
PCSat 25 Jul 07:17:11 07:18:09 10° 259° (W) 07:19:08 145.827
CUTE-I 25 Jul 07:20:36 07:25:56 64° 102° (ESE) 07:31:13 437.470
GOMX 1 25 Jul 07:35:35 07:40:32 78° 102° (ESE) 07:45:49 467.674
NOAA 18 25 Jul 07:36:14 07:41:50 82° 105° (ESE) 07:47:23 137.9125
STRAND 1 25 Jul 07:38:18 07:43:27 69° 258° (WSW) 07:48:36 437.568
DOVE 4 25 Jul 07:40:53 07:45:45 44° 98° (E) 07:50:45 437.250
NOAA 15 25 Jul 07:48:53 07:54:03 58° 290° (WNW) 07:59:12 137.62
PRISM 25 Jul 07:54:38 07:57:58 25° 66° (ENE) 08:01:19 437.425
BRITE-PL 25 Jul 07:59:46 08:03:55 33° 291° (WNW) 08:08:21 437.365/2234.400
LilacSat-2 25 Jul 08:10:13 08:13:39 31° 291° (WNW) 08:17:04 437.200
CINEMA 3 25 Jul 08:10:25 08:14:43 28° 93° (E) 08:18:59 145.822/145.860
YUBILEINY 25 Jul 08:31:22 08:36:03 16° 73° (ENE) 08:40:45 435.215
CANX-2 25 Jul 08:32:05 08:35:59 35° 97° (E) 08:39:51 2200.000
Cubesat XI-IV 25 Jul 08:36:35 08:41:17 32° 296° (WNW) 08:45:58 437.490
AAUSAT CUBESAT 2 25 Jul 08:41:53 08:44:29 16° 91° (E) 08:47:04 437.432
RS-15 25 Jul 08:45:26 08:57:01 77° 309° (NW) 09:09:18 29.354- 29.394
CUTE 1.7 + AOD 2 25 Jul 08:45:54 08:49:57 43° 98° (E) 08:53:57 437.475
Cosmos 2491 25 Jul 08:50:41 08:59:17 57° 75° (ENE) 09:07:52 435.465 / 435.565
ANTELSAT 25 Jul 08:58:02 09:00:16 13° 58° (ENE) 09:02:32 437.575/2403.000
HO-68 25 Jul 08:58:29 09:05:36 59° 102° (ESE) 09:12:40 435.675
SO-50 25 Jul 09:00:04 09:04:45 48° 120° (ESE) 09:09:25 436.795
CUTE-I 25 Jul 09:01:36 09:05:31 21° 300° (WNW) 09:09:24 437.470
GOMX 1 25 Jul 09:15:07 09:18:07 16° 299° (WNW) 09:21:12 467.674
UWE-3 25 Jul 09:16:27 09:20:19 25° 93° (E) 09:24:06 435.000/436.395/437.385
NOAA 18 25 Jul 09:18:13 09:21:49 18° 304° (NW) 09:25:24 137.9125
DOVE 4 25 Jul 09:19:00 09:23:14 27° 294° (WNW) 09:27:35 437.250
ZACube-1 25 Jul 09:22:43 09:26:01 19° 91° (E) 09:29:14 437.345
FUNcube-1 25 Jul 09:23:12 09:26:22 18° 91° (E) 09:29:27 145.935
SEEDS 25 Jul 09:29:19 09:33:32 88° 281° (W) 09:37:41 437.485
PRISM 25 Jul 09:29:33 09:33:11 31° 263° (W) 09:36:50 437.425
CUBEBUG 2 25 Jul 09:33:07 09:37:48 53° 99° (E) 09:42:21 437.445
TIGRISAT 25 Jul 09:38:18 09:42:15 29° 66° (ENE) 09:46:17 435.000
COMPASS 1 25 Jul 09:45:28 09:49:38 83° 286° (WNW) 09:53:46 437.405
Cosmos 2504 25 Jul 09:45:44 09:50:41 17° 74° (ENE) 09:55:37 435.465 / 435.565
CINEMA 3 25 Jul 09:47:14 09:51:55 41° 291° (WNW) 09:56:36 145.822/145.860
UNISAT 6 25 Jul 09:53:25 09:57:45 41° 69° (ENE) 10:02:11 437.425
Oscar 11 25 Jul 10:08:07 10:12:22 55° 100° (E) 10:16:36 145.826/435.025
CANX-2 25 Jul 10:08:19 10:11:41 23° 294° (WNW) 10:15:01 2200.000
AAUSAT CUBESAT 2 25 Jul 10:16:16 10:20:15 48° 288° (WNW) 10:24:11 437.432
QB50P1 25 Jul 10:20:42 10:22:57 14° 60° (ENE) 10:25:11 145.935-145.965
CUTE 1.7 + AOD 2 25 Jul 10:22:27 10:25:30 20° 296° (WNW) 10:28:32 437.475
YUBILEINY 25 Jul 10:22:29 10:31:12 74° 95° (E) 10:40:02 435.215
M-CUBED/EXP-1 PRIME 25 Jul 10:24:39 10:28:34 26° 100° (E) 10:32:29 437.505
POPSAT HIP 1 25 Jul 10:26:32 10:29:07 16° 61° (ENE) 10:31:42 437.405
ANTELSAT 25 Jul 10:31:39 10:36:17 85° 255° (WSW) 10:41:01 437.575/2403.000
SO-50 25 Jul 10:41:06 10:45:26 31° 319° (NW) 10:49:44 436.795
QB50P2 25 Jul 10:45:46 10:49:16 25° 66° (ENE) 10:52:48 145.880/145.840
HO-68 25 Jul 10:46:44 10:52:57 33° 302° (WNW) 10:59:09 435.675
Cosmos 2491 25 Jul 10:48:05 10:55:44 36° 276° (W) 11:03:24 435.465 / 435.565
POLYITAN 1 25 Jul 10:48:22 10:51:54 26° 66° (ENE) 10:55:28 437.675
AUBIESAT-1 25 Jul 10:52:28 10:56:49 39° 103° (ESE) 11:01:09 437.475
UWE-3 25 Jul 10:52:35 10:56:52 37° 291° (WNW) 11:01:04 435.000/436.395/437.385
HUMSAT D 25 Jul 10:56:34 11:00:34 39° 98° (E) 11:04:28 437.325/437.525
DELFI C3 25 Jul 10:57:50 11:01:48 87° 102° (ESE) 11:05:44 145.870
ZACube-1 25 Jul 10:58:11 11:02:33 47° 289° (WNW) 11:06:49 437.345
FUNcube-1 25 Jul 10:58:31 11:02:54 49° 289° (WNW) 11:07:10 145.935
RS-15 25 Jul 11:01:09 11:11:51 36° 339° (NNW) 11:22:57 29.354- 29.394
SEEDS 25 Jul 11:08:02 11:08:31 10° 302° (WNW) 11:09:01 437.485
JAS-2 25 Jul 11:08:25 11:12:31 20° 60° (ENE) 11:16:22 435.910
CUBEBUG 2 25 Jul 11:10:34 11:14:01 20° 298° (WNW) 11:17:26 437.445
TIGRISAT 25 Jul 11:14:37 11:18:50 35° 264° (W) 11:23:08 435.000
UNISAT 6 25 Jul 11:30:55 11:34:37 24° 267° (W) 11:38:24 437.425
CUBEBUG 1 25 Jul 11:32:11 11:33:51 12° 88° (E) 11:35:33 437.445
NANOSAT C BR1 25 Jul 11:32:50 11:37:03 69° 73° (ENE) 11:41:18 145.865
Cosmos 2504 25 Jul 11:33:43 11:42:31 74° 94° (E) 11:51:20 435.465 / 435.565
DUCHIFAT 1 25 Jul 11:38:13 11:42:25 74° 75° (ENE) 11:46:41 145.980
Oscar 11 25 Jul 11:45:19 11:48:06 17° 298° (WNW) 11:50:52 145.826/435.025
QB50P1 25 Jul 11:53:58 11:58:11 68° 258° (WSW) 12:02:28 145.935-145.965
M-CUBED/EXP-1 PRIME 25 Jul 11:58:46 12:03:08 42° 296° (WNW) 12:07:34 437.505
POPSAT HIP 1 25 Jul 12:00:15 12:04:26 59° 259° (W) 12:08:41 437.405
BUGSAT 1 25 Jul 12:02:08 12:06:08 60° 73° (ENE) 12:10:14 437.445
